This is the latest recevied weather packets stored in our database for station/object KK7RJD. If no packets are shown the sender has not sent any weather packets the latest 10 day(s).
| Time | Temp. | Humidity | Pressure | Rain* | Wind** | Luminosity | Snow |
|---|---|---|---|---|---|---|---|
| 1777907703 | 10° C | 49% | 1013.4 hPa | 0 mm | - | 473 W/m² | - |
| 1777907398 | 10° C | 48% | 1013.4 hPa | 0 mm | - | 491 W/m² | - |
| 1777907095 | 10.56° C | 49% | 1013.3 hPa | 0 mm | - | 471 W/m² | - |
| 1777906793 | 10° C | 49% | 1013.5 hPa | 0 mm | - | 449 W/m² | - |
| 1777906490 | 10° C | 49% | 1013.5 hPa | 0 mm | - | 383 W/m² | - |
| 1777906186 | 9.44° C | 49% | 1013.4 hPa | 0 mm | - | 421 W/m² | - |
| 1777905883 | 10° C | 49% | 1013.4 hPa | 0 mm | - | 371 W/m² | - |
| 1777905579 | 9.44° C | 49% | 1013.6 hPa | 0 mm | - | 386 W/m² | - |
| 1777905277 | 8.89° C | 52% | 1013.5 hPa | 0 mm | - | 305 W/m² | - |
| 1777904974 | 8.33° C | 52% | 1013.4 hPa | 0 mm | - | 180 W/m² | - |
| 1777904671 | 8.33° C | 52% | 1013.5 hPa | 0 mm | - | 154 W/m² | - |
| 1777904368 | 8.33° C | 52% | 1013.6 hPa | 0 mm | - | 125 W/m² | - |
| 1777904065 | 8.33° C | 52% | 1013.7 hPa | 0 mm | - | 122 W/m² | - |
| 1777903762 | 8.33° C | 52% | 1013.6 hPa | 0 mm | - | 121 W/m² | - |
| 1777903458 | 8.33° C | 52% | 1013.6 hPa | 0 mm | - | 169 W/m² | - |
| 1777903154 | 7.78° C | 53% | 1013.5 hPa | 0 mm | - | 181 W/m² | - |
| 1777902850 | 7.78° C | 52% | 1013.7 hPa | 0 mm | - | 110 W/m² | - |
| 1777902549 | 7.78° C | 52% | 1013.4 hPa | 0 mm | - | 102 W/m² | - |
| 1777902245 | 7.78° C | 52% | 1013.3 hPa | 0 mm | - | 97 W/m² | - |
| 1777901943 | 7.78° C | 52% | 1013 hPa | 0 mm | - | 93 W/m² | - |
| 1777901641 | 7.78° C | 52% | 1012.7 hPa | 0 mm | - | 88 W/m² | - |
| 1777901337 | 7.78° C | 52% | 1012.8 hPa | 0 mm | - | 86 W/m² | - |
| 1777901035 | 7.78° C | 52% | 1012.5 hPa | 0 mm | - | 83 W/m² | - |
| 1777900733 | 7.78° C | 52% | 1012.4 hPa | 0 mm | - | 77 W/m² | - |
| 1777900429 | 7.78° C | 51% | 1012.4 hPa | 0 mm | - | 70 W/m² | - |
* Rain latest hour (hover to see other rain measurements)
** Current wind speed in m/s (hover to see current wind gust speed)